Weather History for Milton, FL

Change the Weather History Date:

Friday, November 4, 2011

  Actual Average (KNSE) Record (KNSE)
Temperature  
Mean Temperature 52 °F -  
Max Temperature 64 °F 71 °F 81 °F (2012)
Min Temperature 39 °F 53 °F 39 °F (1996)
Degree Days  
Heating Degree Days 14    
Growing Degree Days 2 (Base 50)    
Moisture  
Dew Point 41 °F    
Average Humidity 73    
Maximum Humidity 93    
Minimum Humidity 46    
Precipitation  
Precipitation 0.00 in - - ()
Sea Level Pressure  
Sea Level Pressure 30.03 in    
Wind  
Wind Speed 7 mph (NNW)    
Max Wind Speed 18 mph    
Max Gust Speed 28 mph    
Visibility 10 miles    
Events      
Averages and records for this station are not official NWS values.
T = Trace of Precipitation, MM = Missing Value Source: NWS Daily Summary

Daily Weather History Graph

Daily Weather History Graph

Search for Another Location

Airport:

Trip Planner

Search our weather history database for the weather conditions in past years. The results will help you decide how hot, cold, wet, or windy it might be!

Date:

Astronomy

Nov. 04, 2011 Rise Set
Actual Time 7:05 AM CDT 5:57 PM CDT
Civil Twilight 6:40 AM CDT 6:22 PM CDT
Nautical Twilight 6:11 AM CDT 6:51 PM CDT
Astronomical Twilight 5:43 AM CDT 7:19 PM CDT
Moon 2:29 PM CDT (11/4) 1:39 AM CDT (11/4)
Length of Visible Light 11h 42m
Length of Day
10h 52m
Waxing Gibbous, 69% of the Moon is Illuminated
Nov 4
Waxing Gibbous
Nov 10
Full
Nov 18
Last Quarter
Nov 25
New
Dec 2
First Quarter

Hourly Weather History & Observations

Time (CDT) Temp. Windchill Dew Point Humidity Pressure Visibility Wind Dir Wind Speed Gust Speed Precip Events Conditions
12:56 AM 44.1 °F - 37.9 °F 79% 30.01 in 10.0 mi Calm Calm - N/A   Clear
1:56 AM 41.0 °F - 37.9 °F 89% 29.99 in 10.0 mi Calm Calm - N/A   Clear
2:56 AM 39.9 °F 36.7 °F 37.9 °F 93% 29.99 in 10.0 mi WNW 4.6 mph - N/A   Clear
3:56 AM 41.0 °F 38.0 °F 37.0 °F 86% 29.99 in 10.0 mi WNW 4.6 mph - N/A   Clear
4:56 AM 45.0 °F 38.9 °F 39.0 °F 80% 29.99 in 10.0 mi NNW 12.7 mph - N/A   Clear
5:56 AM 44.1 °F 40.1 °F 37.9 °F 79% 30.00 in 10.0 mi NW 6.9 mph - N/A   Clear
6:56 AM 42.1 °F 37.7 °F 37.9 °F 85% 30.01 in 10.0 mi NW 6.9 mph - N/A   Clear
7:56 AM 44.1 °F 39.5 °F 39.0 °F 82% 30.02 in 10.0 mi NW 8.1 mph - N/A   Clear
8:12 AM 44.6 °F 40.2 °F 39.2 °F 81% 30.06 in 10.0 mi NW 8.1 mph - N/A   Mostly Cloudy
8:37 AM 48.2 °F - 41.0 °F 76% 30.06 in 10.0 mi NNW 12.7 mph - N/A   Scattered Clouds
8:56 AM 48.9 °F - 41.0 °F 74% 30.04 in 10.0 mi NNW 16.1 mph - N/A   Scattered Clouds
9:06 AM 48.2 °F - 41.0 °F 76% 30.08 in 10.0 mi NNW 13.8 mph 21.9 mph N/A   Mostly Cloudy
9:56 AM 51.1 °F - 42.1 °F 71% 30.05 in 10.0 mi NNW 12.7 mph 20.7 mph N/A   Overcast
10:56 AM 53.1 °F - 42.1 °F 66% 30.06 in 10.0 mi North 18.4 mph 27.6 mph N/A   Overcast
11:56 AM 54.0 °F - 42.1 °F 64% 30.06 in 10.0 mi North 13.8 mph 24.2 mph N/A   Overcast
12:56 PM 57.0 °F - 42.1 °F 57% 30.03 in 10.0 mi NNW 15.0 mph - N/A   Mostly Cloudy
1:25 PM 57.2 °F - 42.8 °F 59% 30.04 in 10.0 mi NNW 11.5 mph 19.6 mph N/A   Scattered Clouds
1:56 PM 59.0 °F - 42.1 °F 53% 29.99 in 10.0 mi NNW 16.1 mph 20.7 mph N/A   Partly Cloudy
2:56 PM 62.1 °F - 43.0 °F 50% 29.98 in 10.0 mi North 13.8 mph - N/A   Clear
3:56 PM 64.0 °F - 43.0 °F 46% 29.98 in 10.0 mi North 15.0 mph 20.7 mph N/A   Clear
4:56 PM 63.0 °F - 44.1 °F 50% 29.99 in 10.0 mi North 15.0 mph - N/A   Clear
5:56 PM 57.0 °F - 44.1 °F 62% 30.00 in 10.0 mi NNW 8.1 mph - N/A   Clear
6:56 PM 55.0 °F - 44.1 °F 67% 30.02 in 10.0 mi NW 4.6 mph - N/A   Clear
7:56 PM 52.0 °F - 44.1 °F 74% 30.04 in 10.0 mi NW 5.8 mph - N/A   Clear
8:56 PM 48.0 °F - 43.0 °F 83% 30.04 in 10.0 mi NW 4.6 mph - N/A   Clear
9:56 PM 46.0 °F 43.9 °F 43.0 °F 89% 30.06 in 10.0 mi NW 4.6 mph - N/A   Clear
10:56 PM 44.1 °F 41.5 °F 41.0 °F 89% 30.06 in 10.0 mi NW 4.6 mph - N/A   Clear
11:56 PM 44.1 °F 40.8 °F 41.0 °F 89% 30.07 in 10.0 mi NW 5.8 mph - N/A   Clear